Location: D�rnast
(49.6426°N, 11.9755°E)
Time: 20:43:58
(UTC+00:00)

Cosmos 1340 - Pass Details

Date: 24 January 2021
Orbit: 501 x 504 km, 81.2° (Epoch: 02 March)

Event Time Altitude Azimuth Distance (km) Brightness Sun altitude
Rises 17:47:31 0° 186° (S) 2,584 6.4 -18.1°
Reaches altitude 10° 17:49:38 10° 184° (S) 1,705 5.5 -18.4°
Maximum altitude 17:53:22 74° 99° (E) 527 2.5 -19.0°
Enters shadow 17:54:48 36° 23° (NNE) 819 3.4 -19.2°
